Miscellaneous Local Product
Issued by NWS Hastings, NE

Home | Current Version | Previous Version | Graphics & Text | Print | Product List | Glossary On
Versions: 1 2 3 4 5 6 7 8 9 10 11 12 13 14 15 16 17 18 19 20 21 22 23 24 25 26 27 28 29 30 31 32 33 34 35 36 37 38 39 40 41 42 43 44 45 46 47 48 49 50
000
AXUS43 KGID 181802
MISGRI

GID CWA HOURLY WEATHER ROUNDUP
NATIONAL WEATHER SERVICE HASTINGS NE
100 PM CDT FRI APR 18 2014

NOTE: "FAIR" INDICATES FEW OR NO CLOUDS BELOW 12,000 FEET WITH NO
SIGNIFICANT WEATHER AND/OR OBSTRUCTIONS TO VISIBILITY.

...SOUTH CENTRAL NEBRASKA...

CITY           SKY/WX    TMP DP  RH WIND       PRES   REMARKS
GRAND ISLAND   MOSUNNY   63  41  44 S24G31    30.11F
HASTINGS       MOSUNNY   63  40  42 S20G29    30.11F
KEARNEY        MOSUNNY   63  43  48 S25G36    30.09F
ORD            MOSUNNY   64  40  41 S22G37    30.04F
YORK           SUNNY     63  39  42 S23G29    30.15F
AURORA         MOSUNNY   62  41  46 S21G29    30.13F
LEXINGTON      MOSUNNY   62  44  52 S21G28    30.06F
HOLDREGE       MOSUNNY   62  42  47 S23G33    30.09F
HEBRON         SUNNY     63  40  42 S17       30.19F

...NEBRASKA PANHANDLE...

CITY           SKY/WX    TMP DP  RH WIND       PRES   REMARKS
CHADRON        PTSUNNY   76  36  23 SW18      29.80F
ALLIANCE       CLOUDY    70  39  32 S20       29.88F
SCOTTSBLUFF    CLOUDY    74  38  27 S12G24    29.88F
SIDNEY         CLOUDY    69  35  28 S15       29.95F

...WESTERN AND NORTH CENTRAL NEBRASKA...

CITY           SKY/WX    TMP DP  RH WIND       PRES   REMARKS
VALENTINE      MOSUNNY   71  35  26 S20G28    29.88F
AINSWORTH      MOSUNNY   69  37  30 S30       29.91F
ONEILL         SUNNY     64  36  35 S29G39    30.02F
BROKEN BOW     MOSUNNY   63  41  44 S23G30    30.03F
IMPERIAL       MOSUNNY   68  38  33 S22G30    29.97F
NORTH PLATTE   MOSUNNY   66  40  38 S22G33    29.99F
MCCOOK         SUNNY     66  41  40 S20G32    30.03F

...EASTERN NEBRASKA...

CITY           SKY/WX    TMP DP  RH WIND       PRES   REMARKS
NORFOLK        SUNNY     63  38  39 S21G31    30.13F
SO SIOUX CITY  SUNNY     63  33  32 S22G30    30.19F
TEKAMAH        SUNNY     62  32  32 SE18G29   30.20F
COLUMBUS       SUNNY     61  39  44 S21G28    30.16F
ALBION         SUNNY     62  39  43 S24G32    30.11F
OMAHA EPPLEY   SUNNY     60  33  36 SE13G23   30.23F
OFFUTT AFB     SUNNY     61  36  38 SE10G20   30.23F
MILLARD        SUNNY     58  34  39 SE14      30.23F
LINCOLN        SUNNY     65  37  35 S20G26    30.20F
NEBRASKA CITY  SUNNY     59  35  40 S12G21    30.25F
BEATRICE       SUNNY     63  37  37 S15       30.22F
FALLS CITY     NOT AVBL

...NORTHERN KANSAS...

CITY           SKY/WX    TMP DP  RH WIND       PRES   REMARKS
GOODLAND       MOSUNNY   64  38  38 S22G31    30.01F
HILL CITY      SUNNY     66  43  43 S18G31    30.10F
PHILLIPSBURG   SUNNY     68  39  34 S18G29    30.11F
SMITH CENTER   SUNNY     64  43  45 S20G30    30.14F
BELOIT         SUNNY     66  43  42 SE15      30.16F
HAYS           SUNNY     66  45  45 S25G32    30.14F
RUSSELL        SUNNY     67  42  40 S23G32    30.14F
CONCORDIA      SUNNY     64  42  44 S14G23    30.18F
SALINA         SUNNY     67  43  41 S13G28    30.21F
TOPEKA         SUNNY     63  41  44 S9        30.27F



USA.gov is the U.S. government's official web portal to all federal, state and local government web resources and services.